Regional Weather Roundup
Issued by NWS

Home | Current Version | Previous Version | Graphics & Text | Print | Product List | Glossary On
Versions: 1 2 3 4 5 6 7 8 9 10 11 12 13 14 15 16 17 18 19 20 21 22 23 24 25 26 27 28 29 30 31 32 33 34 35 36 37 38 39 40 41 42 43 44 45 46 47 48 49 50
000
ASUS44 KMEG 280410
RWRTN
TENNESSEE HOURLY STATE WEATHER ROUNDUP
NATIONAL WEATHER SERVICE MEMPHIS TN
1100 PM CDT TUE JUN 27 2017

TNZ002-004-019-021-049-052-054-088>092-280500-
WEST TENNESSEE

CITY           SKY/WX    TMP DP  RH WIND       PRES   REMARKS
MEMPHIS INTL   PTCLDY    78  64  61 E6        30.06R
NWS MEMPHIS      N/A     71 N/A N/A MISG        N/A
JACKSON        CLEAR     66  64  93 CALM      30.08R
SOMERVILLE     CLEAR     68  66  94 CALM      30.07R
COVINGTON      CLEAR     70  64  83 CALM      30.07R
UNION CITY     CLEAR     68  63  83 CALM      30.06S
BOLIVAR        CLEAR     66  64  94 CALM      30.08R
HUNTINGDON     PTCLDY    64  63  94 CALM      30.08R
LEXINGTON      CLEAR     63  63 100 CALM      30.08S FOG
SELMER         CLEAR     64  63  94 CALM      30.09R
SAVANNAH       CLEAR     64  64 100 CALM      30.08R
$$

TNZ008-025-027-028-033-062-065-066-280500-
NORTH MIDDLE TENNESSEE

CITY           SKY/WX    TMP DP  RH WIND       PRES   REMARKS
NASHVILLE      CLEAR     68  58  70 S3        30.11R
PORTLAND       CLEAR     63  57  82 CALM      30.11R
CLARKSVILLE    CLEAR     62  55  77 CALM      30.10R
SMYRNA         CLEAR     63  59  87 E3        30.12R
COOKEVILLE     CLEAR     57  57 100 CALM      30.13R
GALLATIN       PTCLDY    64  59  82 CALM      30.14R
CROSSVILLE     CLEAR     56  53  90 CALM      30.18R
$$

TNZ061-075-076-078-094-096-097-280500-
SOUTH MIDDLE TENNESSEE

CITY           SKY/WX    TMP DP  RH WIND       PRES   REMARKS
FAYETTEVILLE   CLEAR     63  57  82 E3        30.11R
TULLAHOMA      CLEAR     61  55  82 CALM      30.14R
WINCHESTER     CLEAR     59  57  94 CALM      30.13R
MCMINNVILLE    CLEAR     61  59  94 CALM      30.14R
COLUMBIA       PTCLDY    64  64 100 S3        30.09R
SHELBYVILLE    CLEAR     63  59  88 SE3       30.12R
$$

TNZ017-018-042-046-047-280500-
NORTHEAST TENNESSEE

CITY           SKY/WX    TMP DP  RH WIND       PRES   REMARKS
TRI CITIES     CLEAR     57  51  80 CALM      30.16R
ELIZABETHTON   CLEAR     55  52  88 CALM      30.17R
$$

TNZ012-013-036-069-073-074-280500-
CENTRAL EAST TENNESSEE

CITY           SKY/WX    TMP DP  RH WIND       PRES   REMARKS
KNOXVILLE      CLEAR     65  54  67 N5        30.13R
OAK RIDGE      CLEAR     62  56  80 CALM      30.16R
DOWNTOWN KNOXV   N/A     59  57  94 CALM      30.14R
GATLINBURG     CLEAR     57  52  82 CALM      30.14R
MORRISTOWN     CLEAR     63  54  72 CALM      30.14R
JACKSBORO        N/A     57  55  94 CALM      30.18S
$$

TNZ083-085-099-280500-
SOUTHEAST TENNESSEE

CITY           SKY/WX    TMP DP  RH WIND       PRES   REMARKS
CHATTANOOGA    CLEAR     65  59  81 CALM      30.12R
DAYTON         CLEAR     61  61 100 CALM      30.12R
$$

SKY/WX REPORTED AS FAIR MEANS FEW OR NO CLOUDS BELOW
12 THOUSAND FEET.





USA.gov is the U.S. government's official web portal to all federal, state and local government web resources and services.